Wind_Speed
30 29 20 17 16 21 17 20 19 18 17 17 15 14 12 10 9 1 2 4 5 4 3 2 1 4 7 9 9 10 10 9 7 6 5 4 4 4 4 5 6 7 8 8
36 27 27 29 27 25 23 23 25 23 22 18 18 16 13 10 7 6 0 0 3 4 2 2 3 4 7 10 10 10 9 9 9 8 7 6 6 6 7 8 9 10 11 11
39 31 35 36 31 27 25 22 30 24 25 21 18 17 13 12 10 7 3 1 2 4 6 7 7 8 8 10 11 11 11 11 11 11 10 9 9 10 11 12 13 15 15 15
45 38 41 39 37 29 21 19 30 30 28 22 21 17 15 12 11 9 6 5 3 6 8 7 11 12 13 13 13 13 13 14 14 13 12 13 14 14 16 18 21 21 18 16
49 42 45 46 39 34 25 23 24 29 31 30 28 26 21 19 17 13 8 3 1 6 8 8 10 12 15 17 17 16 16 17 16 16 16 17 18 20 21 20 18 17 16 16
53 50 50 47 46 41 37 32 29 32 36 41 33 31 24 17 13 16 12 8 6 7 8 10 14 17 15 19 20 20 20 19 19 19 19 21 21 18 17 17 17 17 17 17
57 55 56 52 55 54 47 43 40 38 42 44 32 32 15 13 13 16 17 13 12 13 12 9 9 13 16 18 22 24 23 21 19 22 24 18 14 15 16 18 17 18 19 21
57 60 56 63 57 55 53 48 48 44 42 36 33 33 15 13 17 19 17 18 21 15 12 11 13 12 11 19 23 23 23 20 21 13 12 13 15 16 16 17 19 21 22 24
60 61 62 65 61 57 58 57 46 45 43 40 40 37 29 18 22 21 16 15 15 13 11 14 17 18 9 10 15 22 22 13 11 11 12 16 17 20 21 21 25 28 26 22
56 58 67 66 67 64 62 55 54 54 53 53 50 44 37 22 23 23 20 20 16 15 17 20 17 14 9 9 9 9 8 7 3 5 8 10 13 15 22 19 27 28 29 26
53 59 61 75 75 70 68 68 64 59 57 54 53 50 36 28 21 19 22 24 20 18 20 19 15 13 9 8 4 4 3 2 4 6 10 15 20 23 25 28 27 28 30 30
48 51 59 65 76 78 72 70 66 64 60 59 57 51 43 33 29 22 23 25 24 20 22 20 17 14 14 9 5 4 2 5 6 10 15 18 21 23 25 22 34 37 27 36
44 51 54 60 65 76 79 77 71 71 66 67 62 56 49 39 34 23 22 22 23 24 25 20 19 15 12 9 7 8 8 9 12 12 16 19 22 27 24 35 41 32 39 36
44 50 55 57 63 63 72 77 80 78 75 73 69 60 51 41 38 26 26 26 22 28 30 19 16 17 18 13 10 12 9 12 14 17 20 23 26 30 35 38 49 41 53 49
43 49 48 51 53 59 63 66 70 74 73 74 66 59 46 42 43 38 33 29 29 30 28 22 23 24 20 20 15 12 12 13 16 18 24 26 30 33 36 40 47 48 52 45
43 46 46 46 42 50 56 61 61 66 67 71 62 58 49 44 39 33 33 25 28 30 29 24 25 25 24 23 22 14 14 17 19 21 25 28 32 35 39 44 44 44 50 60
48 45 46 44 36 37 50 56 58 62 63 64 63 53 48 43 29 30 27 20 23 22 23 25 25 23 20 18 20 20 22 22 25 27 28 31 34 38 42 48 44 42 46 38
51 50 46 42 42 45 40 49 56 59 59 60 59 53 48 33 31 33 28 20 27 26 25 21 25 26 23 27 27 24 26 29 32 32 34 37 39 43 46 48 48 48 44 44
56 54 51 44 41 41 40 44 46 57 60 58 56 51 48 34 33 33 30 26 31 29 27 30 30 33 36 33 29 26 32 36 38 39 40 41 41 44 47 49 47 44 45 48
57 57 51 47 35 34 41 32 28 42 52 52 48 45 43 39 39 37 34 30 32 34 33 36 38 38 36 35 36 37 39 40 44 48 48 47 47 48 37 44 47 51 48 45
53 56 53 44 37 32 38 28 23 33 45 46 42 40 41 37 41 37 36 35 37 37 36 40 40 39 35 38 41 44 45 48 50 53 51 50 50 45 43 40 46 53 51 46
39 43 44 39 40 33 32 30 27 25 36 38 40 42 37 34 38 41 39 40 41 42 42 37 41 37 37 44 44 45 49 52 57 62 53 57 52 46 45 43 48 52 48 44
34 32 31 35 39 34 34 30 26 27 30 34 43 45 38 33 33 31 34 35 36 33 35 39 38 38 41 45 46 49 53 57 57 54 56 53 54 52 49 49 54 34 33 35
33 29 33 36 16 38 37 33 31 32 32 38 41 37 44 42 43 38 38 39 40 41 39 37 40 42 49 52 52 57 57 56 54 56 46 47 53 54 51 50 42 40 37 40
27 27 25 24 41 17 31 33 34 34 35 38 42 37 39 42 51 39 40 42 41 40 43 43 41 43 42 49 49 52 55 49 43 41 49 55 55 49 45 44 44 44 41 44
27 26 23 19 35 23 34 34 35 36 38 42 42 42 42 41 37 38 41 43 42 42 45 43 41 42 45 43 47 46 48 43 47 48 47 50 50 47 46 49 47 45 45 46
Wind_Direction
224 222 221 224 218 203 187 180 168 171 168 162 151 145 132 129 116 175 213 185 180 185 160 146 248 237 228 221 213 208 209 212 220 198 209 235 264 280 312 325 325 326 325 321
228 220 218 220 225 212 203 190 187 193 180 178 171 165 161 146 123 96 327 11 209 202 200 240 237 228 229 223 216 211 213 212 204 211 223 248 273 291 302 303 300 299 302 306
231 225 213 216 219 215 212 210 201 200 189 188 190 180 170 169 153 161 136 97 296 257 262 253 245 242 233 227 223 220 217 220 225 232 239 251 267 281 287 289 293 297 297 298
228 220 218 216 222 217 201 202 200 214 213 209 206 182 173 180 178 165 167 167 201 215 239 246 237 237 238 234 229 230 231 234 238 242 247 259 268 275 281 288 295 292 293 292
228 224 221 220 216 223 205 204 209 217 229 230 217 221 198 201 209 173 173 189 296 272 259 242 245 250 249 248 243 240 241 247 255 261 261 266 275 283 290 300 304 300 294 298
224 221 222 223 218 221 225 224 218 214 223 230 226 233 207 229 236 187 177 217 273 278 273 275 261 252 263 249 249 246 249 255 261 264 270 278 287 291 299 302 302 299 301 302
222 219 222 221 213 216 220 221 228 223 223 232 228 238 207 212 221 208 173 196 234 253 266 278 300 250 241 242 244 250 257 265 276 273 273 283 287 292 296 299 298 295 295 298
223 221 220 223 218 220 222 222 229 228 233 240 239 236 166 214 189 192 197 199 218 237 251 288 291 301 276 254 251 256 259 268 274 269 273 286 288 288 287 287 292 294 294 294
223 220 219 220 222 220 220 225 227 230 240 244 248 248 242 215 200 209 208 214 218 220 251 282 277 294 273 284 260 255 258 250 255 276 290 289 290 289 290 291 293 293 294 294
228 223 217 222 222 221 225 227 226 228 232 236 241 244 245 233 210 224 224 227 233 233 257 266 272 275 292 280 261 243 234 249 278 337 327 325 314 313 288 294 296 288 298 295
228 227 218 219 222 224 222 224 223 228 234 240 244 250 245 251 240 226 234 234 227 246 256 250 268 268 277 314 254 181 153 305 338 333 333 328 326 295 305 300 287 304 296 292
228 228 225 221 222 225 226 227 230 234 238 239 241 244 246 247 252 252 257 236 230 241 250 248 248 272 278 273 225 187 307 303 296 321 328 330 331 325 320 291 309 286 308 290
230 230 229 222 223 224 225 227 228 228 234 240 243 246 247 248 253 253 266 254 226 243 253 254 247 257 258 225 263 242 287 289 304 315 326 324 319 312 314 300 289 278 287 277
233 236 237 234 228 230 229 227 229 230 233 236 241 243 245 244 252 253 267 244 219 237 249 250 250 248 240 231 217 256 266 292 301 308 310 311 310 298 295 316 283 314 299 285
237 241 244 242 237 231 234 231 231 232 234 236 241 245 245 245 247 254 259 233 224 236 250 255 259 248 242 236 240 240 248 261 282 295 309 298 298 301 305 308 311 309 305 309
240 245 245 245 245 241 233 235 232 231 233 236 238 241 240 242 246 249 234 231 238 231 239 244 237 248 247 244 239 249 261 268 288 300 300 308 302 301 304 309 312 305 309 296
230 239 244 243 243 247 231 228 230 230 232 234 237 238 239 240 236 228 219 228 238 229 238 243 242 253 248 251 261 269 278 283 286 288 296 307 307 308 308 308 309 306 301 301
232 238 242 242 236 237 239 231 231 231 231 232 234 236 233 231 217 216 219 226 231 234 235 241 245 249 254 252 255 274 278 282 285 289 291 296 302 307 302 304 303 306 308 306
231 240 237 239 237 242 234 227 225 227 227 227 230 231 230 211 216 214 220 218 229 235 230 231 232 238 247 262 269 276 272 276 283 285 285 290 294 300 300 303 303 304 307 308
226 232 239 230 228 236 231 223 231 229 230 226 228 227 227 211 219 222 224 227 236 247 248 240 238 245 254 269 280 280 280 283 284 289 289 286 289 300 299 302 299 300 305 306
232 230 242 226 229 224 223 223 223 225 231 227 220 216 223 229 223 225 230 239 247 250 248 246 250 255 268 274 278 281 281 284 292 287 283 294 292 287 294 298 296 296 299 303
236 235 240 229 227 224 215 217 224 228 231 226 213 213 220 221 227 229 233 240 245 253 252 247 246 245 273 268 274 279 279 283 282 274 299 300 296 303 287 294 298 299 295 296
232 235 243 253 227 214 206 211 217 213 220 220 215 221 227 225 227 226 233 237 244 243 237 255 256 266 265 266 269 269 271 264 283 289 292 294 294 293 295 295 300 306 297 295
227 232 235 237 190 210 201 209 211 206 200 206 215 215 228 220 222 228 235 240 245 248 250 254 255 260 261 256 257 263 267 272 287 282 290 286 292 292 294 291 288 295 293 286
228 231 241 236 225 182 200 210 214 204 203 206 214 223 230 229 236 227 229 231 239 243 248 248 253 257 263 270 268 276 281 275 278 285 284 282 281 282 286 288 289 290 290 295
217 224 229 250 239 190 193 205 212 215 214 213 216 220 222 227 235 243 246 245 245 242 246 253 261 266 266 274 278 276 273 271 273 278 277 278 283 286 288 289 289 290 292 294
Height
5871 5876 5880 5887 5893 5899 5902 5903 5907 5908 5909 5910 5910 5911 5912 5912 5912 5914 5916 5916 5916 5917 5918 5918 5919 5920 5922 5922 5923 5924 5924 5925 5925 5925 5925 5926 5926 5925 5925 5924 5922 5923 5923 5923
5865 5871 5879 5884 5888 5893 5898 5900 5903 5905 5906 5907 5906 5908 5909 5911 5913 5914 5916 5915 5915 5916 5917 5917 5918 5918 5920 5921 5921 5922 5923 5923 5923 5923 5924 5924 5924 5924 5924 5923 5922 5922 5921 5920
5861 5869 5872 5875 5880 5887 5893 5897 5899 5903 5903 5904 5903 5904 5907 5909 5910 5912 5914 5915 5915 5916 5916 5916 5916 5917 5918 5919 5920 5920 5920 5921 5921 5922 5922 5922 5923 5923 5923 5922 5921 5920 5918 5917
5854 5863 5864 5869 5873 5881 5889 5895 5898 5897 5899 5901 5901 5904 5903 5906 5907 5909 5911 5913 5914 5914 5915 5914 5914 5915 5915 5916 5917 5917 5918 5918 5919 5919 5920 5921 5920 5920 5920 5919 5918 5916 5914 5913
5848 5856 5857 5860 5868 5875 5883 5889 5892 5894 5895 5894 5896 5897 5901 5901 5904 5907 5909 5911 5911 5912 5912 5912 5912 5912 5912 5913 5914 5914 5914 5915 5917 5917 5917 5916 5916 5916 5914 5913 5911 5910 5908 5908
5838 5848 5850 5857 5865 5870 5876 5880 5884 5885 5886 5883 5891 5893 5898 5899 5903 5904 5905 5908 5909 5909 5910 5910 5909 5909 5908 5908 5910 5910 5911 5913 5913 5913 5912 5912 5911 5909 5908 5907 5906 5905 5903 5902
5827 5835 5843 5850 5855 5860 5865 5870 5872 5874 5872 5875 5886 5886 5893 5896 5899 5901 5901 5903 5904 5905 5905 5906 5905 5904 5904 5903 5904 5906 5908 5908 5908 5907 5907 5906 5905 5905 5903 5902 5902 5901 5898 5897
5818 5825 5832 5837 5844 5850 5856 5863 5862 5865 5868 5873 5878 5878 5889 5893 5895 5897 5897 5897 5898 5900 5902 5902 5902 5902 5901 5901 5901 5901 5903 5903 5903 5902 5902 5902 5900 5900 5900 5899 5898 5897 5895 5893
5806 5814 5825 5830 5838 5845 5847 5849 5863 5863 5864 5867 5868 5872 5879 5887 5891 5892 5895 5895 5896 5898 5899 5900 5898 5898 5898 5897 5896 5896 5898 5899 5899 5899 5898 5897 5896 5895 5895 5894 5893 5891 5889 5888
5799 5806 5815 5823 5830 5835 5840 5851 5851 5851 5853 5856 5859 5864 5870 5880 5886 5889 5891 5892 5894 5894 5895 5896 5896 5895 5894 5893 5892 5893 5894 5895 5895 5894 5894 5893 5892 5891 5890 5888 5886 5885 5882 5881
5788 5794 5805 5810 5814 5823 5829 5832 5838 5845 5847 5850 5855 5855 5866 5873 5879 5883 5886 5887 5889 5890 5891 5892 5893 5892 5890 5890 5889 5891 5891 5892 5891 5891 5890 5889 5888 5884 5884 5884 5878 5877 5877 5875
5781 5784 5789 5798 5806 5812 5818 5826 5834 5836 5839 5841 5846 5850 5859 5867 5872 5876 5878 5881 5883 5884 5886 5888 5888 5887 5886 5887 5887 5887 5888 5888 5887 5887 5886 5884 5881 5880 5879 5875 5875 5870 5866 5868
5773 5773 5778 5787 5792 5794 5802 5812 5818 5826 5832 5829 5836 5844 5853 5861 5864 5869 5872 5873 5876 5879 5881 5883 5883 5883 5883 5883 5884 5884 5885 5884 5883 5881 5879 5878 5876 5873 5871 5871 5861 5855 5856 5853
5763 5765 5769 5775 5787 5794 5791 5797 5804 5811 5815 5822 5822 5837 5843 5854 5858 5864 5866 5868 5871 5874 5876 5878 5878 5878 5879 5879 5879 5880 5880 5878 5877 5877 5875 5872 5870 5867 5863 5859 5856 5845 5844 5846
5753 5757 5762 5768 5775 5780 5784 5789 5794 5798 5806 5808 5822 5827 5838 5846 5852 5857 5861 5862 5865 5868 5871 5871 5873 5873 5874 5874 5875 5875 5875 5874 5872 5871 5869 5866 5863 5858 5854 5852 5846 5838 5834 5832
5745 5750 5753 5758 5764 5767 5773 5778 5784 5789 5796 5800 5811 5816 5829 5838 5843 5849 5854 5855 5857 5861 5864 5866 5867 5868 5868 5869 5869 5869 5868 5867 5866 5864 5862 5859 5856 5853 5848 5844 5841 5835 5829 5823
5735 5740 5743 5748 5755 5757 5755 5764 5771 5779 5786 5793 5798 5811 5822 5828 5835 5841 5845 5847 5851 5854 5857 5859 5860 5861 5861 5860 5860 5859 5859 5859 5858 5856 5855 5852 5849 5846 5842 5837 5832 5828 5825 5821
5725 5730 5735 5742 5743 5741 5755 5762 5764 5770 5778 5783 5791 5801 5811 5820 5827 5832 5836 5838 5844 5847 5849 5851 5853 5854 5853 5851 5851 5850 5850 5849 5848 5846 5844 5842 5840 5838 5834 5831 5826 5820 5817 5814
5716 5722 5729 5733 5736 5742 5746 5752 5755 5756 5765 5774 5782 5792 5801 5810 5817 5822 5827 5830 5836 5838 5841 5842 5842 5842 5842 5842 5842 5843 5842 5840 5838 5836 5834 5832 5831 5828 5824 5821 5818 5814 5811 5805
5708 5713 5721 5726 5728 5734 5740 5746 5749 5753 5755 5767 5776 5785 5793 5800 5806 5814 5819 5822 5827 5830 5832 5833 5834 5834 5834 5835 5835 5834 5833 5832 5829 5827 5826 5824 5823 5821 5816 5812 5809 5806 5801 5796
5700 5707 5714 5717 5723 5728 5732 5738 5744 5745 5754 5761 5770 5778 5785 5792 5799 5806 5810 5814 5818 5821 5823 5823 5824 5825 5827 5826 5825 5824 5822 5821 5819 5816 5815 5816 5812 5809 5807 5801 5798 5794 5789 5786
5693 5699 5704 5709 5716 5722 5725 5732 5737 5744 5748 5755 5765 5772 5778 5784 5790 5796 5800 5804 5808 5810 5812 5812 5812 5813 5815 5814 5815 5815 5813 5811 5808 5802 5804 5804 5798 5797 5794 5790 5786 5783 5777 5776
5686 5691 5697 5703 5704 5713 5719 5725 5730 5736 5742 5750 5758 5765 5771 5777 5782 5787 5791 5794 5797 5799 5800 5802 5803 5804 5805 5804 5804 5803 5800 5797 5797 5794 5793 5789 5784 5783 5782 5780 5777 5772 5767 5765
5679 5686 5691 5698 5695 5705 5712 5717 5722 5729 5735 5742 5748 5756 5763 5768 5771 5775 5781 5785 5788 5789 5790 5792 5793 5794 5793 5791 5791 5790 5788 5786 5787 5785 5779 5777 5774 5772 5771 5769 5767 5763 5760 5758
5674 5680 5685 5686 5689 5697 5704 5711 5717 5722 5729 5734 5740 5745 5753 5757 5759 5764 5768 5772 5776 5777 5779 5780 5780 5780 5781 5780 5780 5778 5777 5776 5774 5771 5768 5766 5763 5760 5758 5757 5754 5751 5747 5745
5666 5673 5678 5679 5680 5688 5694 5702 5707 5715 5720 5725 5731 5736 5740 5745 5749 5755 5760 5762 5764 5766 5768 5768 5770 5771 5770 5769 5766 5764 5762 5761 5758 5756 5754 5754 5753 5749 5746 5744 5740 5737 5735 5732